Probability
3 3 32 39 39 45 48 48 52 68 65 55 61 55 61 52 52 58 55 55 65 68 74 74 81 81 81 81 84 87 87 87 81 87 97 87 84 81 77 77 81 65 58
3 3 23 32 26 35 42 45 48 52 52 52 45 42 42 48 45 48 45 45 48 55 61 65 71 74 77 81 81 84 90 87 84 87 87 81 81 77 74 74 74 74 55
0 3 10 29 35 35 39 48 39 42 39 35 35 35 35 35 39 35 42 39 35 39 45 52 58 65 74 77 81 87 87 90 87 81 84 77 84 77 68 71 65 61 55
3 3 0 23 16 16 23 23 35 26 26 29 26 29 26 16 23 23 16 29 29 32 35 39 42 48 55 58 71 77 77 84 87 84 74 74 74 81 77 74 58 61 61
3 0 3 13 10 10 19 23 16 19 16 16 19 16 16 16 16 19 16 26 26 26 26 29 35 39 42 52 68 61 68 74 77 71 77 84 84 81 81 77 58 55 65
0 0 0 16 6 3 3 13 10 13 10 10 10 13 16 16 13 13 13 16 13 16 19 29 29 32 26 35 52 55 61 58 68 68 77 71 84 84 81 77 68 61 58
0 0 0 10 6 13 6 6 3 3 10 10 10 10 13 16 10 13 13 10 10 10 13 16 26 26 29 26 35 52 42 42 45 52 65 71 77 77 84 74 71 58 58
0 0 0 6 3 3 0 3 3 3 3 3 6 6 10 13 13 13 13 13 13 13 16 16 16 10 13 23 16 23 35 42 13 39 48 61 68 71 71 77 61 58 58
0 0 0 0 0 3 6 6 6 3 3 3 3 3 6 10 10 6 6 6 10 10 6 3 6 6 6 13 13 13 26 26 29 32 26 48 58 74 68 61 61 61 55
0 0 0 0 0 0 0 0 3 3 3 3 3 3 3 10 6 3 3 3 6 0 3 3 3 6 6 13 19 13 13 16 16 19 26 42 52 71 65 55 55 52 58
0 0 0 0 0 0 0 0 0 0 0 0 0 0 0 0 0 0 3 6 0 0 0 0 6 3 3 6 3 10 10 13 6 10 32 52 55 52 52 52 42 52 52
0 0 0 0 0 0 0 0 0 0 0 0 0 0 0 0 0 0 0 0 0 0 3 3 3 0 0 0 0 3 6 3 0 10 26 48 55 52 39 48 52 39 45
0 0 0 0 0 0 0 0 0 0 0 0 0 0 0 0 0 0 0 0 0 0 0 0 0 0 0 0 0 3 3 0 0 3 23 52 58 45 42 39 39 35 39
0 0 0 0 0 0 0 0 0 0 0 0 0 0 0 0 0 0 0 0 0 0 0 0 0 0 0 3 3 3 3 0 10 10 26 42 52 39 32 42 35 35 29
0 0 0 0 0 0 0 0 0 0 0 0 0 0 0 0 0 0 0 0 0 0 0 0 3 3 3 3 3 3 3 6 10 10 32 42 48 45 45 39 35 32 26
0 0 0 0 0 0 0 0 0 0 0 0 0 0 0 0 0 0 0 3 0 0 0 3 3 3 3 3 6 6 10 6 10 10 19 26 23 42 39 35 29 29 19
0 0 0 0 0 0 0 0 0 0 0 0 0 0 0 0 0 0 0 0 3 3 3 3 0 3 3 3 6 6 6 6 10 3 10 10 16 16 32 26 26 32 13
0 0 0 0 0 0 0 0 0 0 0 0 0 0 0 0 0 0 0 3 3 3 3 3 6 6 3 6 6 6 10 23 13 10 3 6 16 16 19 29 26 29 16
0 0 0 0 0 0 0 0 0 0 0 0 0 0 0 0 0 0 0 3 0 3 3 0 3 6 13 13 10 13 10 16 19 3 3 3 10 16 16 6 10 16 19
0 0 0 0 0 0 0 0 0 0 0 0 0 0 0 0 0 0 0 0 0 3 3 6 10 10 13 13 3 10 10 13 19 13 6 16 13 3 3 6 10 6 6
0 0 0 0 0 0 0 0 0 0 0 0 0 0 0 0 0 0 0 0 3 3 3 3 3 3 6 6 13 10 6 6 13 13 10 19 19 13 3 16 6 13 10
0 0 0 0 0 0 0 0 0 0 0 0 0 0 0 0 0 0 0 0 3 3 3 3 3 3 3 6 3 3 3 3 3 0 6 13 10 13 13 0 3 6 3
0 0 0 0 0 0 0 0 0 0 0 0 0 0 0 0 0 0 0 0 0 0 3 3 3 3 6 0 0 0 0 0 3 0 3 6 10 13 6 6 6 6 3
0 0 0 0 0 0 0 0 0 0 0 0 0 0 0 0 0 0 0 0 0 0 0 0 0 3 0 6 3 0 0 0 0 3 6 3 3 3 6 3 6 10 10
0 0 0 0 0 0 0 0 0 0 0 0 0 0 0 0 0 0 0 0 0 0 0 3 0 3 6 3 3 3 0 0 0 3 3 0 0 3 3 6 3 13 6
3 0 0 0 0 0 0 0 0 0 0 0 0 0 0 0 0 0 0 0 0 0 0 3 3 6 6 6 6 3 3 0 3 0 0 0 0 3 0 0 0 0 10
Height
5897 5897 5896 5896 5895 5895 5894 5893 5892 5891 5891 5890 5888 5887 5886 5885 5884 5883 5882 5881 5880 5880 5879 5878 5878 5878 5877 5877 5877 5877 5877 5877 5878 5879 5879 5880 5880 5881 5882 5882 5883 5883 5884
5897 5896 5896 5896 5895 5894 5894 5893 5892 5891 5890 5889 5888 5887 5886 5884 5883 5882 5881 5880 5879 5879 5878 5877 5876 5876 5876 5876 5875 5875 5875 5876 5876 5877 5877 5878 5879 5879 5880 5881 5882 5882 5883
5896 5896 5896 5895 5895 5894 5893 5893 5892 5891 5890 5888 5887 5886 5885 5884 5882 5881 5880 5879 5878 5877 5877 5876 5875 5875 5874 5874 5874 5874 5874 5874 5874 5875 5876 5876 5877 5878 5879 5879 5880 5881 5881
5896 5896 5895 5895 5894 5894 5893 5892 5891 5890 5889 5888 5887 5885 5884 5883 5882 5880 5879 5878 5877 5876 5875 5874 5873 5873 5873 5872 5872 5872 5872 5872 5872 5873 5873 5874 5875 5876 5877 5878 5879 5879 5880
5896 5895 5895 5894 5894 5893 5892 5892 5891 5889 5888 5887 5886 5884 5883 5882 5881 5879 5878 5876 5875 5874 5873 5872 5872 5871 5871 5870 5870 5870 5870 5870 5871 5871 5872 5872 5873 5874 5875 5876 5877 5878 5878
5896 5895 5894 5894 5893 5893 5892 5891 5890 5889 5888 5886 5885 5884 5882 5881 5879 5878 5876 5875 5874 5872 5871 5871 5870 5869 5869 5869 5868 5868 5868 5868 5869 5869 5870 5870 5871 5872 5873 5874 5876 5876 5877
5895 5895 5894 5894 5893 5892 5892 5891 5890 5888 5887 5885 5884 5883 5881 5880 5878 5877 5875 5873 5872 5871 5870 5869 5868 5867 5867 5867 5866 5866 5866 5866 5867 5867 5868 5869 5870 5871 5871 5873 5874 5875 5876
5895 5894 5894 5893 5893 5892 5891 5890 5889 5888 5886 5885 5883 5882 5880 5878 5877 5875 5873 5872 5870 5869 5868 5867 5866 5865 5865 5865 5864 5864 5864 5864 5865 5865 5866 5867 5868 5869 5870 5871 5872 5874 5874
5894 5894 5894 5893 5893 5892 5891 5890 5888 5887 5886 5884 5883 5881 5879 5877 5875 5874 5872 5870 5869 5867 5866 5865 5864 5863 5863 5862 5862 5862 5862 5862 5863 5863 5864 5865 5866 5867 5868 5869 5871 5872 5873
5894 5894 5893 5893 5892 5891 5890 5889 5888 5887 5885 5884 5882 5880 5878 5876 5874 5872 5870 5868 5867 5865 5864 5863 5862 5861 5861 5860 5860 5860 5860 5860 5861 5861 5862 5863 5864 5866 5867 5868 5869 5870 5871
5894 5894 5893 5892 5892 5891 5890 5889 5888 5886 5885 5883 5881 5879 5877 5875 5873 5871 5869 5867 5865 5863 5862 5861 5860 5859 5858 5858 5857 5857 5857 5858 5858 5859 5860 5861 5863 5864 5865 5866 5868 5869 5870
5893 5893 5893 5892 5891 5891 5890 5889 5887 5886 5884 5882 5881 5879 5876 5874 5872 5870 5867 5865 5863 5861 5860 5858 5857 5856 5855 5855 5855 5855 5855 5856 5856 5857 5858 5860 5861 5862 5863 5865 5866 5867 5868
5893 5893 5892 5892 5891 5890 5889 5888 5887 5886 5884 5882 5880 5878 5876 5873 5871 5869 5866 5864 5862 5860 5858 5856 5855 5854 5853 5852 5852 5852 5853 5853 5854 5855 5856 5858 5859 5860 5862 5863 5865 5866 5867
5893 5892 5892 5892 5891 5890 5889 5888 5887 5885 5884 5882 5880 5877 5875 5873 5870 5868 5865 5863 5860 5858 5856 5854 5852 5851 5850 5850 5849 5850 5850 5851 5852 5853 5854 5856 5857 5858 5860 5861 5863 5864 5866
5892 5892 5892 5892 5891 5890 5889 5888 5887 5885 5884 5882 5879 5877 5875 5872 5870 5867 5864 5862 5859 5857 5854 5852 5850 5849 5848 5848 5847 5847 5848 5849 5849 5850 5852 5853 5855 5856 5858 5860 5861 5863 5864
5892 5892 5892 5891 5891 5890 5889 5888 5887 5885 5883 5882 5879 5877 5874 5872 5869 5866 5864 5861 5858 5856 5853 5851 5849 5847 5846 5846 5845 5845 5845 5846 5847 5848 5850 5851 5853 5855 5856 5858 5860 5861 5863
5892 5892 5891 5891 5891 5890 5889 5888 5887 5885 5883 5881 5879 5877 5874 5871 5869 5866 5863 5861 5858 5855 5852 5850 5848 5846 5845 5844 5844 5844 5844 5844 5844 5846 5847 5849 5851 5853 5854 5856 5858 5860 5862
5891 5892 5891 5891 5891 5890 5889 5888 5887 5885 5884 5882 5879 5877 5874 5872 5869 5866 5863 5860 5857 5855 5852 5850 5847 5846 5844 5843 5843 5842 5842 5842 5843 5844 5846 5847 5849 5851 5853 5855 5857 5859 5861
5891 5891 5891 5891 5891 5890 5890 5889 5887 5886 5884 5882 5880 5877 5875 5872 5869 5866 5863 5860 5857 5855 5852 5850 5848 5846 5844 5843 5842 5842 5841 5841 5842 5843 5844 5846 5848 5849 5851 5853 5855 5857 5859
5891 5891 5891 5891 5891 5891 5890 5889 5888 5886 5885 5883 5880 5878 5876 5873 5870 5867 5864 5861 5858 5855 5853 5851 5848 5846 5845 5844 5843 5842 5841 5841 5842 5843 5844 5845 5847 5848 5850 5852 5854 5857 5859
5890 5891 5892 5892 5892 5891 5891 5890 5889 5887 5886 5883 5881 5879 5877 5874 5871 5868 5865 5862 5859 5856 5854 5852 5850 5848 5846 5845 5844 5843 5842 5842 5842 5843 5844 5845 5846 5848 5849 5851 5854 5856 5858
5890 5891 5892 5892 5892 5892 5891 5891 5889 5888 5886 5885 5882 5880 5878 5875 5872 5869 5866 5863 5861 5858 5855 5853 5851 5849 5848 5846 5845 5844 5844 5844 5843 5844 5844 5845 5846 5847 5849 5851 5852 5855 5856
5890 5891 5892 5893 5893 5892 5892 5891 5890 5889 5887 5886 5884 5882 5879 5877 5874 5871 5868 5865 5863 5860 5857 5855 5853 5851 5849 5848 5847 5846 5846 5845 5845 5845 5845 5846 5847 5848 5849 5850 5852 5853 5855
5890 5891 5892 5893 5893 5893 5893 5892 5892 5890 5889 5887 5885 5883 5881 5878 5876 5873 5870 5867 5865 5862 5860 5857 5855 5853 5852 5850 5849 5848 5847 5847 5847 5847 5847 5847 5847 5848 5849 5850 5851 5853 5854
5889 5891 5892 5893 5893 5894 5893 5893 5892 5891 5890 5888 5886 5884 5882 5880 5877 5875 5872 5870 5867 5865 5862 5860 5857 5855 5854 5852 5851 5850 5849 5849 5848 5848 5848 5848 5848 5849 5849 5849 5851 5852 5853
5888 5890 5892 5893 5893 5894 5894 5893 5893 5892 5891 5889 5888 5886 5884 5881 5879 5877 5874 5872 5869 5867 5864 5862 5860 5858 5856 5855 5853 5853 5852 5851 5850 5850 5849 5849 5849 5849 5849 5849 5850 5851 5852
Wind_Speed
1 0 1 2 3 4 4 4 5 6 6 6 7 7 7 7 6 6 6 6 6 6 5 4 4 4 4 4 5 7 8 8 8 9 8 8 9 9 9 8 7 6 6
1 0 1 2 4 4 4 5 5 6 7 7 7 7 7 7 7 7 7 7 7 6 6 6 5 5 5 5 5 7 8 8 9 9 9 9 9 9 9 9 8 7 7
1 0 2 3 4 4 5 5 6 7 8 8 7 8 8 8 8 8 8 8 8 7 7 6 6 5 5 5 5 6 8 8 9 9 10 10 10 10 10 9 9 9 8
1 1 2 3 4 4 5 6 7 8 8 8 8 8 8 8 9 9 9 9 9 8 7 7 6 6 6 6 6 6 7 8 9 9 9 10 11 11 10 10 10 9 8
1 1 2 3 4 4 5 7 7 8 9 9 8 9 8 8 9 9 9 10 9 9 8 7 6 6 6 6 6 7 7 8 9 9 9 10 11 11 11 11 10 9 9
1 1 2 3 4 5 6 7 8 9 9 9 9 9 9 9 9 10 10 10 10 10 9 8 7 7 6 6 6 7 7 8 8 9 9 10 11 12 12 12 11 10 10
0 1 2 3 4 5 6 7 8 8 9 9 9 9 10 10 10 11 11 11 10 10 9 8 8 7 6 6 6 7 7 8 8 9 9 10 11 12 12 12 12 11 10
0 1 3 4 5 6 6 7 8 8 9 9 9 10 11 11 11 11 11 11 10 10 10 9 8 7 7 7 7 8 8 9 9 9 9 10 11 12 12 12 12 12 11
0 2 3 4 5 6 6 7 7 8 9 9 10 11 11 12 12 11 11 11 11 10 9 9 8 8 7 8 8 8 9 9 9 10 10 10 11 12 12 13 13 12 12
1 2 3 4 5 5 6 7 8 9 9 10 11 11 12 12 12 12 11 11 11 10 9 9 9 8 8 8 8 8 9 9 10 10 10 11 11 12 12 13 13 12 12
2 3 3 4 5 5 6 7 8 9 10 10 11 11 12 12 12 12 11 11 11 10 9 9 9 8 8 8 8 9 9 9 10 11 11 11 12 12 12 13 13 12 12
2 2 3 4 5 5 6 7 8 9 10 10 11 11 12 12 12 12 12 11 10 10 10 9 9 9 8 8 8 8 9 10 10 10 11 12 12 12 13 13 13 13 13
1 2 3 4 4 5 6 7 8 9 10 10 11 11 12 12 13 12 12 11 10 10 10 9 9 8 8 7 7 8 9 9 10 11 11 11 12 13 13 13 13 13 13
1 1 3 3 4 5 6 8 8 9 9 10 11 12 12 13 13 12 12 12 11 10 10 9 8 8 7 7 6 7 8 9 10 10 11 12 12 13 14 14 14 13 14
1 1 2 3 3 5 6 7 8 9 9 10 11 12 12 12 13 13 13 12 12 11 10 9 8 7 6 5 5 6 7 8 10 11 12 12 12 13 14 14 15 15 15
0 1 2 3 4 5 6 7 8 8 9 10 11 12 12 13 13 13 12 12 12 11 10 10 9 7 6 4 4 4 5 7 9 10 11 12 12 13 14 15 15 15 15
1 1 2 3 4 5 6 7 7 8 9 11 11 12 12 13 14 13 12 13 13 12 11 11 9 7 5 4 3 3 4 5 7 9 10 11 12 13 14 14 15 15 15
2 2 2 3 4 5 5 6 7 8 9 10 11 12 12 13 14 13 13 13 13 13 12 11 10 8 6 4 3 2 2 3 6 8 9 11 11 12 13 15 15 15 14
3 2 2 2 3 4 5 6 7 8 9 10 11 12 13 13 14 14 14 14 14 14 13 12 11 9 7 6 5 3 1 1 4 6 8 9 10 11 13 14 14 15 15
3 2 2 2 3 3 4 5 6 7 8 10 11 12 13 14 14 15 15 15 15 14 14 13 12 11 10 8 6 4 3 3 3 4 6 8 9 10 12 13 14 14 15
4 3 3 2 3 4 5 6 6 7 8 10 11 12 13 14 15 16 16 16 16 15 14 14 13 12 11 10 8 7 5 5 4 3 4 6 8 10 11 12 14 14 15
4 4 4 3 3 4 5 6 7 8 9 10 10 11 12 14 16 16 17 16 16 16 15 15 14 13 13 11 10 9 7 7 6 5 4 5 7 8 10 11 12 14 15
5 5 5 4 4 4 5 6 7 8 9 10 10 11 13 14 15 16 16 17 16 16 16 16 15 14 13 12 12 11 9 8 7 6 5 4 5 6 7 9 11 12 13
7 6 6 5 4 4 5 6 7 8 9 9 10 11 13 14 15 16 16 16 17 16 17 16 16 15 14 14 13 13 11 10 8 6 5 4 3 3 5 7 9 11 12
8 7 7 6 5 4 4 5 6 7 8 9 10 11 12 13 14 15 16 16 17 16 17 16 16 15 14 14 13 13 12 11 10 8 6 5 3 1 2 5 7 9 11
9 8 8 6 5 4 4 5 5 6 7 8 9 11 12 12 13 14 15 16 16 16 16 16 15 15 14 13 13 13 12 11 10 9 8 6 4 2 0 2 5 8 10
Wind_Direction
151 71 31 19 352 356 355 351 343 342 341 341 339 336 339 339 338 336 338 338 338 327 316 309 302 290 281 265 257 251 247 243 236 236 235 232 228 226 222 223 223 224 228
216 276 354 354 347 343 339 338 337 336 337 338 340 340 340 340 339 335 334 332 329 325 318 309 300 296 283 270 261 254 247 240 238 236 233 231 226 223 221 223 223 225 227
202 283 344 349 342 336 333 334 337 338 339 339 340 338 339 338 336 332 330 327 324 320 313 304 299 296 284 274 265 256 246 241 239 235 232 229 225 222 222 223 222 223 225
224 312 328 339 330 331 334 334 335 336 337 337 336 334 337 335 331 329 327 324 322 317 312 304 303 295 284 273 265 256 248 242 239 235 231 228 223 220 222 222 220 219 224
242 319 336 337 330 332 333 332 331 332 336 336 336 334 335 333 328 326 325 324 321 316 312 304 300 296 284 272 263 254 247 242 238 235 231 229 222 220 221 221 218 218 219
221 337 351 342 337 337 335 331 331 333 335 334 336 336 335 333 330 327 325 322 319 316 312 305 298 292 284 271 261 252 247 242 238 233 228 227 222 218 219 218 216 217 214
235 328 352 343 334 331 333 334 333 335 337 337 338 338 336 332 329 327 323 321 319 315 311 305 298 288 279 268 260 251 248 243 238 234 229 225 220 216 215 215 215 216 213
273 331 337 334 331 332 336 339 340 341 341 343 344 342 339 335 331 327 325 323 320 315 310 305 299 288 277 270 261 252 248 243 237 232 227 222 218 214 213 214 214 216 215
300 328 329 331 334 338 344 347 348 349 348 348 346 344 342 339 334 331 328 326 323 318 312 306 299 289 280 272 262 254 248 244 237 230 226 223 218 215 213 214 215 216 218
310 326 334 340 343 349 355 356 356 353 351 350 348 346 343 340 337 335 333 331 328 323 316 310 304 296 284 274 264 255 247 243 237 232 227 221 217 215 214 213 215 216 216
320 337 351 351 353 2 3 2 360 356 354 353 351 348 346 343 341 341 340 335 331 325 319 311 305 298 290 278 265 257 249 243 238 233 227 221 218 216 215 214 214 214 214
324 342 356 358 4 8 8 6 1 359 357 356 354 351 348 347 348 346 343 340 335 330 323 314 306 298 291 280 265 255 249 242 238 233 227 222 220 218 217 215 215 214 214
328 348 1 6 8 12 11 6 4 3 1 359 357 355 354 353 351 349 348 345 340 336 329 323 314 304 295 284 269 255 246 240 236 231 227 223 221 219 216 215 213 215 212
320 359 9 11 13 13 13 12 8 5 2 1 1 360 359 358 358 356 354 352 348 343 339 334 328 315 301 287 275 258 246 236 233 229 224 221 220 218 216 216 214 211 211
305 5 9 13 15 14 12 9 7 5 5 5 5 4 4 4 2 1 358 356 353 351 349 344 340 330 318 300 282 263 249 237 231 226 222 219 220 218 215 215 214 212 210
114 41 29 22 20 17 14 9 9 10 8 6 4 4 5 5 5 4 2 1 1 359 357 352 345 339 331 318 295 269 251 238 230 223 218 218 218 217 215 213 212 212 210
120 75 48 38 28 25 19 14 14 12 9 8 7 8 9 9 8 7 6 6 6 6 4 359 355 352 348 341 321 278 250 235 224 217 215 215 216 215 214 212 210 210 209
132 99 70 48 35 32 25 19 17 15 12 12 13 15 15 15 16 15 13 12 11 10 10 11 12 11 11 9 2 342 268 226 212 210 212 212 212 213 213 211 210 210 208
140 110 77 53 45 38 29 23 22 21 19 19 21 23 23 23 23 22 21 21 20 19 21 24 26 29 30 31 29 33 39 179 191 199 206 208 208 209 210 211 211 209 209
147 129 112 81 64 51 42 35 32 29 27 25 27 29 29 28 28 27 27 28 28 27 29 33 36 38 40 42 44 54 72 111 147 177 194 202 204 205 208 209 211 212 208
153 149 136 114 92 71 58 48 42 36 32 31 32 32 32 33 33 32 32 33 32 32 34 38 41 43 44 47 51 58 73 97 113 139 171 189 195 198 203 207 210 212 213
162 155 145 134 110 85 71 59 51 45 40 37 36 36 37 38 36 34 35 35 36 37 39 41 43 45 48 50 53 62 75 86 93 101 129 165 182 191 198 205 209 213 217
172 163 154 143 121 98 81 70 61 52 45 42 44 43 42 41 38 36 37 38 40 42 43 44 46 48 50 54 58 62 71 80 85 88 98 124 160 184 199 207 210 215 218
176 169 161 150 133 112 93 79 67 57 51 49 48 46 45 43 39 37 38 40 43 44 44 45 48 50 52 56 59 61 65 70 73 76 80 92 122 171 202 211 215 218 220
177 172 167 159 146 127 105 88 72 60 55 52 49 47 45 42 39 38 39 42 42 43 43 44 47 49 52 55 57 59 62 63 62 62 63 67 76 119 191 213 221 225 226
182 178 174 168 160 143 121 98 75 61 56 52 49 46 44 41 39 39 40 41 40 41 42 43 45 47 50 52 54 57 57 57 57 55 55 51 45 39 19 223 229 231 231